Regional Weather Roundup
Issued by NWS Newport/Morehead, NC

Current Version | Previous Version | Graphics & Text | Print | Product List | Glossary Off
Versions: 1 2 3 4 5 6 7 8 9 10 11 12 13 14 15 16 17 18 19 20 21 22 23 24 25 26 27 28 29 30 31 32 33 34 35 36 37 38 39 40 41 42 43 44 45 46 47 48 49 50

000
ASUS42 KMHX 171113
RWRMHX
WEATHER ROUNDUP FOR EASTERN NORTH CAROLINA
NATIONAL WEATHER SERVICE NEWPORT/MOREHEAD CITY NC
700 AM EDT TUE OCT 17 2017

NOTE: "FAIR" INDICATES FEW OR NO CLOUDS BELOW 12,000 FEET
WITH NO SIGNIFICANT WEATHER AND/OR OBSTRUCTIONS TO VISIBILITY

NCZ015>017-031-032-045>047-102-103-171200-
NORTH COAST

CITY           SKY/WX    TMP DP  RH WIND       PRES   REMARKS
EDENTON        NOT AVBL
ELIZABETH CITY CLEAR     54  46  74 N16G22    30.24R
KITTY HAWK     PTSUNNY   60  44  55 N10G20    30.20R
MANTEO         MOCLDY   N/A N/A N/A NE18G24   30.21R

$$

NCZ045>047-081-094-103-104-171200-
CENTRAL COAST

CITY           SKY/WX    TMP DP  RH WIND       PRES   REMARKS
FRISCO         PTCLDY    62  48  60 NE17G31   30.17R

$$

NCZ095-097-098-100-101-171200-
SOUTHERN COAST

CITY           SKY/WX    TMP DP  RH WIND       PRES   REMARKS
BEAUFORT       PTCLDY    56  47  71 N12       30.19R
CEDAR ISLAND   NOT AVBL
JACKSONVILLE   MOCLDY    50  44  80 N10       30.21R
PINEY ISLAND     N/A    N/A N/A N/A N15       30.19R
WILMINGTON     CLOUDY    50  43  77 N8        30.22R


$$

NCZ011>013-027>030-043-044-078>080-089-090>093-098-171200-
COASTAL PLAIN

CITY           SKY/WX    TMP DP  RH WIND       PRES   REMARKS
AHOSKIE        CLEAR     45  40  83 N5        30.28R
CLINTON        PTCLDY    49  42  78 N6        30.27R
ELIZABETHTOWN  NOT AVBL
GOLDSBORO      PTCLDY    49  40  69 N12       30.25R
GREENVILLE     CLOUDY    45  41  87 N3        30.27R
HAVELOCK       MOCLDY    53  48  83 N14       30.22R
KENANSVILLE    PTCLDY    46  41  81 N3        30.26R
KINSTON        PTCLDY    45  41  87 N3        30.27R
NEW BERN       CLOUDY    50  45  83 N10       30.24R
RICHLANDS      CLOUDY    48  42  80 N7        30.24R
ROCKY MOUNT    PTCLDY    47  40  76 N12       30.28R
WASHINGTON     PTCLDY    46  42  85 N9        30.26R
WHITEVILLE     MOCLDY    50  42  74 N6        30.24R

$$

AMZ130-135-150-152-154-156-158-170-250-252-270-ANZ085-086-088-633-658-670-171200-
MARINE OBSERVATIONS

STATION/POSITION TIME  TEMP    WIND        PRES    WAVE   SWELL
                       AIR SEA DIR/SP/G            HT/PER HT/PER
                 (UTC) (F)     (DEG/KT/KT) (MB)    (FT/S) (FT/S)
CHESAPEAKE LIGHT NOT AVBL
64 E VA BEACH    1050   60 68   20/ 23/ 27 1022.8    9/ 8   2/11
DUCK             1048   61 69   30/ 24/ 30 1022.7
2 E DUCK         1030      71                N/A     7/ 7   2/11
OREGON INLET     1042   61 69   30/ 17/ 24 1022.2
13E OREGON INLT  1048      72                N/A    10/ 8   3/13
HATTERAS CG      1048   62 71   40/ 18/ 27 1021.6
DIAMOND BUOY     1050   66 81   30/ 27/ 33 1020.0    8/ 8
CAPE LOOKOUT     1100   61      10/ 19/ 23 1021.5
BEAUFORT LAB     1048   60 73   10/ 12/ 14 1022.4
30 SE NEW RVR IN 1008   65      40/ 23/ 31 1020.4
30 SE NEW RVR IN NOT AVBL
27 SE WRIGHTSVLE 1008   64 77   60/ 23/ 33 1020.5
5 SE WRIGHTSVLE  1008   59 76   30/ 19/ 39 1022.1
225 S CAPE HAT   1050   76 80   30/ 25/ 29 1014.4    7/ 6   3/11
41 SE CHARLESTON 1100   68 80   30/ 25/ 33 1019.6

$$




USA.gov is the U.S. government's official web portal to all federal, state and local government web resources and services.